SL-14 DEB, 47089

Orbit data source: Space-Track

SL-14 DEB, 47089 is space debris in LEO originally from a launch on Thu, 15 Aug 1991 UTC launched from the Plesetsk Missile And Space Complex (PKMTR). Debris objects in space refer to the collection of defunct objects orbiting the Earth. Examples of debris include non-operational satellites, rocket bodies, and fragments generated from explosions, collisions, or faulty payload assembly.

Loading next visibility...
Identifier
47089, 1991-056DP
Orbit
LEO
Country
Flag of CISCIS
Related business
Manufacturer
Unknown
Mission
Spacecraft
Bus & Motor
Unknown
Mass
Unknown
Launch date (UTC)
1991-08-15 (34 years ago)
Launch vehicle
Unknown
Launch site
Plesetsk Missile And Space Complex (PKMTR)
Object type
Payload
Rocket body
Debris
Shape & HBR
Unknown shape, 0.1 m
Radar Cross Section
Small (<0.1 m²)

Expand to show TLE details & history
Last TLE update: 2 days ago

TLE from 2 days ago
0 SL-14 DEB
1 47089U 91056DP  25311.55318170  .00000124  00000-0  18471-3 0  9992
2 47089  82.6006 248.3344 0188077  92.2890 269.9792 13.38361917244737
Epoch: 2025-11-07T13:16Z
TLE epoch observation values (Epoch: 2025-11-07T13:16:34.898Z)
Latitude
-0.00003°
Longitude
2.19349°
Altitude
1,120.93 km
Speed
7.291 km/s
True Right ascension
16h 33m 20s
True Declination
0° 00' 00"
Sunlit
Object was in daylight at epoch
Visualization orbit readout
Latitude
Unknown
Longitude
Unknown
Altitude
Unknown
Speed
Unknown
Apparent Right ascension
Unknown
Apparent Declination
Unknown
Sunlit
N/A
Visualization observer readout
Local Sidereal Time
03:19:20
Azimuth
Unknown
Elevation
Unknown
Doppler factor
Unknown
Orbital elements
Apogee altitude
1,253.482 km
Perigee altitude
971.715 km
Semi-major axis
7,490.736 km
Eccentricity
0.01881
Inclination
82.6006°
RAAN
248.3344°
Arg. of periapsis
92.289°
True anomaly
267.82452°
Mean anomaly
269.9792°
Eccentric anomaly
268.9018°
Mean motion
3.34778 °/min
Orbital period
107.53 mins
BSTAR
0.00018471
Loading maneuver chart data...
Computing Atmospheric mass density...
Loading historical data...
Loading historical data...
Loading historical data...
Loading historical data...
Loading historical data...
Loading historical data...
Loading historical data...

Documentation

Showing up to 5 results
|